Location: Arroyo de Valdeoliva
(40.1604°N, 4.9878°W)
Time: 20:06:29
(UTC+00:00)

Meteor 2-20 Rocket - Pass Details

Date: 11 December 2025
Orbit: 871 x 1024 km, 82.5° (Epoch: 12 January)

Event Time Altitude Azimuth Distance (km) Brightness Sun altitude
Rises 18:31:36 0° 181° (S) 3,699 7.7 -18.0°
Reaches altitude 10° 18:34:09 10° 180° (S) 2,736 7.0 -18.4°
Maximum altitude 18:40:25 77° 95° (E) 987 4.3 -19.6°
Drops below altitude 10° 18:46:28 10° 11° (N) 2,648 6.5 -20.7°
Enters shadow 18:48:16 - 10° (N) 3,327 7.1 -21.0°
